Time,TemperatureF,DewpointF,PressureIn,WindDirection,WindDirectionDegrees,WindSpeedMPH,WindSpeedGustMPH,Humidity,HourlyPrecipIn,Conditions,Clouds,dailyrainin,SoftwareType,DateUTC
2013-06-13 00:02:00,61.0,44.0,-100.00,ESE,114,11.0,14.0,53,0.00,,,-99.99,,2013-06-13 06:02:00,
2013-06-13 00:11:00,61.0,43.0,-100.00,ESE,116,12.0,16.0,52,0.00,,,-99.99,,2013-06-13 06:11:00,
2013-06-13 00:22:00,61.0,43.0,-100.00,ESE,120,13.0,17.0,52,0.00,,,-99.99,,2013-06-13 06:22:00,
2013-06-13 00:33:00,60.0,43.0,-100.00,SE,126,12.0,17.0,53,0.00,,,-99.99,,2013-06-13 06:33:00,
2013-06-13 00:44:00,59.0,44.0,-100.00,ESE,117,11.0,14.0,56,0.00,,,-99.99,,2013-06-13 06:44:00,
2013-06-13 00:52:00,60.0,44.0,-100.00,SE,133,12.0,18.0,54,0.00,,,-99.99,,2013-06-13 06:52:00,
2013-06-13 01:01:00,60.0,44.0,-100.00,SE,133,13.0,18.0,54,0.00,,,-99.99,,2013-06-13 07:01:00,
2013-06-13 01:11:00,59.0,44.0,-100.00,ESE,123,12.0,16.0,58,0.00,,,-99.99,,2013-06-13 07:11:00,
2013-06-13 01:22:00,59.0,44.0,-100.00,ESE,116,12.0,15.0,58,0.00,,,-99.99,,2013-06-13 07:22:00,
2013-06-13 01:33:00,59.0,45.0,-100.00,ESE,114,11.0,14.0,60,0.00,,,-99.99,,2013-06-13 07:33:00,
2013-06-13 01:42:00,58.0,45.0,-100.00,ESE,120,12.0,14.0,60,0.00,,,-99.99,,2013-06-13 07:42:00,
2013-06-13 01:52:00,58.0,45.0,-100.00,ESE,121,10.0,13.0,62,0.00,,,-99.99,,2013-06-13 07:52:00,
2013-06-13 02:01:00,58.0,45.0,-100.00,ESE,120,11.0,14.0,61,0.00,,,-99.99,,2013-06-13 08:01:00,
2013-06-13 02:11:00,58.0,44.0,-100.00,SE,130,12.0,14.0,60,0.00,,,-99.99,,2013-06-13 08:11:00,
2013-06-13 02:22:00,57.0,45.0,-100.00,SE,126,12.0,15.0,63,0.00,,,-99.99,,2013-06-13 08:22:00,
2013-06-13 02:32:00,58.0,44.0,-100.00,SE,137,12.0,14.0,59,0.00,,,-99.99,,2013-06-13 08:32:00,
2013-06-13 02:42:00,58.0,45.0,-100.00,SE,127,11.0,14.0,62,0.00,,,-99.99,,2013-06-13 08:42:00,
2013-06-13 02:52:00,57.0,44.0,-100.00,SE,127,11.0,15.0,63,0.00,,,-99.99,,2013-06-13 08:52:00,
2013-06-13 03:02:00,56.0,45.0,-100.00,SE,128,11.0,13.0,64,0.00,,,-99.99,,2013-06-13 09:02:00,
2013-06-13 03:11:00,57.0,41.0,-100.00,SE,133,11.0,12.0,55,0.00,,,-99.99,,2013-06-13 09:11:00,
2013-06-13 03:22:00,62.0,31.0,-100.00,SSE,148,12.0,14.0,31,0.00,,,-99.99,,2013-06-13 09:22:00,
2013-06-13 03:32:00,63.0,28.0,-100.00,SSE,151,12.0,13.0,27,0.00,,,-99.99,,2013-06-13 09:32:00,
2013-06-13 03:42:00,57.0,39.0,-100.00,SE,127,9.0,12.0,49,0.00,,,-99.99,,2013-06-13 09:42:00,
2013-06-13 03:52:00,61.0,29.0,-100.00,SE,140,10.0,14.0,29,0.00,,,-99.99,,2013-06-13 09:52:00,
2013-06-13 04:01:00,62.0,26.0,-100.00,SSE,150,12.0,14.0,26,0.00,,,-99.99,,2013-06-13 10:01:00,
2013-06-13 04:11:00,60.0,30.0,-100.00,SSE,147,11.0,13.0,31,0.00,,,-99.99,,2013-06-13 10:11:00,
2013-06-13 04:22:00,58.0,30.0,-100.00,SE,128,8.0,10.0,34,0.00,,,-99.99,,2013-06-13 10:22:00,
2013-06-13 04:33:00,58.0,34.0,-100.00,SE,131,7.0,10.0,40,0.00,,,-99.99,,2013-06-13 10:33:00,
2013-06-13 04:42:00,59.0,31.0,-100.00,SE,130,7.0,9.0,33,0.00,,,-99.99,,2013-06-13 10:42:00,
2013-06-13 04:53:00,62.0,24.0,-100.00,SE,144,11.0,13.0,23,0.00,,,-99.99,,2013-06-13 10:53:00,
2013-06-13 05:02:00,62.0,23.0,-100.00,SSE,148,12.0,14.0,22,0.00,,,-99.99,,2013-06-13 11:02:00,
2013-06-13 05:11:00,62.0,24.0,-100.00,SSE,150,11.0,14.0,23,0.00,,,-99.99,,2013-06-13 11:11:00,
2013-06-13 05:23:00,61.0,25.0,-100.00,SSE,150,9.0,12.0,26,0.00,,,-99.99,,2013-06-13 11:23:00,
2013-06-13 05:32:00,60.0,24.0,-100.00,SE,131,6.0,8.0,25,0.00,,,-99.99,,2013-06-13 11:32:00,
2013-06-13 05:42:00,59.0,24.0,-100.00,SE,134,6.0,7.0,25,0.00,,,-99.99,,2013-06-13 11:42:00,
2013-06-13 05:52:00,61.0,22.0,-100.00,SE,141,6.0,7.0,23,0.00,,,-99.99,,2013-06-13 11:52:00,
2013-06-13 06:01:00,61.0,23.0,-100.00,SE,141,6.0,8.0,23,0.00,,,-99.99,,2013-06-13 12:01:00,
2013-06-13 06:11:00,63.0,22.0,-100.00,SSE,151,10.0,12.0,21,0.00,,,-99.99,,2013-06-13 12:11:00,
2013-06-13 06:22:00,62.0,22.0,-100.00,SE,138,12.0,14.0,21,0.00,,,-99.99,,2013-06-13 12:22:00,
2013-06-13 06:34:00,62.0,22.0,-100.00,SE,134,12.0,15.0,21,0.00,,,-99.99,,2013-06-13 12:34:00,
2013-06-13 06:42:00,61.0,23.0,-100.00,SE,131,11.0,14.0,23,0.00,,,-99.99,,2013-06-13 12:42:00,
2013-06-13 06:52:00,62.0,25.0,-100.00,SE,130,11.0,15.0,24,0.00,,,-99.99,,2013-06-13 12:52:00,
2013-06-13 07:01:00,62.0,25.0,-100.00,ESE,123,11.0,15.0,24,0.00,,,-99.99,,2013-06-13 13:01:00,
2013-06-13 07:11:00,63.0,28.0,-100.00,ESE,121,9.0,16.0,27,0.00,,,-99.99,,2013-06-13 13:11:00,
2013-06-13 07:21:00,64.0,27.0,-100.00,SE,130,10.0,14.0,25,0.00,,,-99.99,,2013-06-13 13:21:00,
2013-06-13 07:32:00,64.0,28.0,-100.00,ESE,123,9.0,12.0,25,0.00,,,-99.99,,2013-06-13 13:32:00,
2013-06-13 07:43:00,64.0,28.0,-100.00,ESE,123,7.0,11.0,26,0.00,,,-99.99,,2013-06-13 13:43:00,
2013-06-13 07:53:00,65.0,27.0,-100.00,SE,137,7.0,11.0,24,0.00,,,-99.99,,2013-06-13 13:53:00,
2013-06-13 08:02:00,66.0,27.0,-100.00,SE,141,7.0,11.0,23,0.00,,,-99.99,,2013-06-13 14:02:00,
2013-06-13 08:11:00,67.0,27.0,-100.00,SE,143,7.0,11.0,22,0.00,,,-99.99,,2013-06-13 14:11:00,
2013-06-13 08:22:00,69.0,28.0,-100.00,SSE,165,6.0,14.0,22,0.00,,,-99.99,,2013-06-13 14:22:00,
2013-06-13 08:33:00,67.0,28.0,-100.00,South,174,5.0,9.0,23,0.00,,,-99.99,,2013-06-13 14:33:00,
2013-06-13 08:53:00,63.0,41.0,-100.00,SE,131,9.0,12.0,45,0.00,,,-99.99,,2013-06-13 14:53:00,
2013-06-13 09:12:00,64.0,40.0,-100.00,SE,134,6.0,11.0,41,0.00,,,-99.99,,2013-06-13 15:12:00,
2013-06-13 09:22:00,66.0,39.0,-100.00,ESE,116,4.0,13.0,38,0.00,,,-99.99,,2013-06-13 15:22:00,
2013-06-13 09:33:00,66.0,39.0,-100.00,ESE,120,5.0,9.0,37,0.00,,,-99.99,,2013-06-13 15:33:00,
2013-06-13 09:43:00,66.0,41.0,-100.00,ESE,117,7.0,11.0,40,0.00,,,-99.99,,2013-06-13 15:43:00,
2013-06-13 09:53:00,67.0,39.0,-100.00,SE,138,6.0,8.0,36,0.00,,,-99.99,,2013-06-13 15:53:00,
2013-06-13 10:01:00,68.0,41.0,-100.00,SE,133,4.0,7.0,38,0.00,,,-99.99,,2013-06-13 16:01:00,
2013-06-13 10:12:00,71.0,29.0,-100.00,WSW,243,6.0,13.0,21,0.00,,,-99.99,,2013-06-13 16:12:00,
2013-06-13 10:22:00,71.0,31.0,-100.00,South,189,4.0,9.0,22,0.00,,,-99.99,,2013-06-13 16:22:00,
2013-06-13 10:33:00,71.0,29.0,-100.00,WSW,241,5.0,9.0,21,0.00,,,-99.99,,2013-06-13 16:33:00,
2013-06-13 10:43:00,72.0,30.0,-100.00,SW,227,4.0,9.0,21,0.00,,,-99.99,,2013-06-13 16:43:00,
2013-06-13 10:53:00,73.0,30.0,-100.00,SSW,202,2.0,5.0,20,0.00,,,-99.99,,2013-06-13 16:53:00,
2013-06-13 11:02:00,72.0,28.0,-100.00,SW,226,3.0,7.0,19,0.00,,,-99.99,,2013-06-13 17:02:00,
2013-06-13 11:11:00,71.0,30.0,-100.00,South,176,7.0,12.0,21,0.00,,,-99.99,,2013-06-13 17:11:00,
2013-06-13 11:24:00,72.0,29.0,-100.00,South,176,7.0,12.0,20,0.00,,,-99.99,,2013-06-13 17:24:00,
2013-06-13 11:32:00,73.0,30.0,-100.00,South,175,9.0,15.0,20,0.00,,,-99.99,,2013-06-13 17:32:00,
2013-06-13 11:43:00,73.0,29.0,-100.00,South,172,9.0,15.0,20,0.00,,,-99.99,,2013-06-13 17:43:00,
2013-06-13 11:53:00,74.0,30.0,-100.00,South,172,9.0,15.0,20,0.00,,,-99.99,,2013-06-13 17:53:00,
2013-06-13 12:02:00,75.0,29.0,-100.00,South,176,9.0,15.0,18,0.00,,,-99.99,,2013-06-13 18:02:00,
2013-06-13 12:11:00,76.0,30.0,-100.00,SW,217,7.0,14.0,18,0.00,,,-99.99,,2013-06-13 18:11:00,
2013-06-13 12:22:00,75.0,29.0,-100.00,WSW,243,7.0,14.0,18,0.00,,,-99.99,,2013-06-13 18:22:00,
2013-06-13 12:33:00,75.0,30.0,-100.00,SW,230,11.0,17.0,19,0.00,,,-99.99,,2013-06-13 18:33:00,
2013-06-13 12:43:00,75.0,31.0,-100.00,SW,222,7.0,15.0,19,0.00,,,-99.99,,2013-06-13 18:43:00,
2013-06-13 12:52:00,75.0,30.0,-100.00,SW,222,6.0,12.0,19,0.00,,,-99.99,,2013-06-13 18:52:00,
2013-06-13 13:01:00,77.0,30.0,-100.00,SSW,213,4.0,10.0,18,0.00,,,-99.99,,2013-06-13 19:01:00,
2013-06-13 13:11:00,75.0,29.0,-100.00,South,185,9.0,20.0,18,0.00,,,-99.99,,2013-06-13 19:11:00,
2013-06-13 13:22:00,77.0,29.0,-100.00,SSW,198,9.0,21.0,18,0.00,,,-99.99,,2013-06-13 19:22:00,
2013-06-13 13:33:00,76.0,29.0,-100.00,South,179,11.0,21.0,18,0.00,,,-99.99,,2013-06-13 19:33:00,
2013-06-13 13:43:00,75.0,30.0,-100.00,South,175,12.0,22.0,19,0.00,,,-99.99,,2013-06-13 19:43:00,
2013-06-13 13:53:00,76.0,27.0,-100.00,SSE,161,16.0,27.0,17,0.00,,,-99.99,,2013-06-13 19:53:00,
2013-06-13 14:01:00,76.0,29.0,-100.00,SSE,160,19.0,26.0,17,0.00,,,-99.99,,2013-06-13 20:01:00,
2013-06-13 14:11:00,77.0,29.0,-100.00,SSE,161,18.0,26.0,17,0.00,,,-99.99,,2013-06-13 20:11:00,
2013-06-13 14:22:00,78.0,27.0,-100.00,South,171,17.0,24.0,15,0.00,,,-99.99,,2013-06-13 20:22:00,
2013-06-13 14:32:00,78.0,26.0,-100.00,SSE,161,19.0,30.0,15,0.00,,,-99.99,,2013-06-13 20:32:00,
2013-06-13 14:43:00,78.0,29.0,-100.00,SSE,165,16.0,23.0,16,0.00,,,-99.99,,2013-06-13 20:43:00,
2013-06-13 14:53:00,78.0,26.0,-100.00,South,172,13.0,26.0,15,0.00,,,-99.99,,2013-06-13 20:53:00,
2013-06-13 15:02:00,77.0,26.0,-100.00,South,179,12.0,22.0,15,0.00,,,-99.99,,2013-06-13 21:02:00,
2013-06-13 15:11:00,77.0,26.0,-100.00,South,181,14.0,27.0,15,0.00,,,-99.99,,2013-06-13 21:11:00,
2013-06-13 15:22:00,79.0,26.0,-100.00,South,169,15.0,27.0,14,0.00,,,-99.99,,2013-06-13 21:22:00,
2013-06-13 15:34:00,77.0,26.0,-100.00,South,169,20.0,29.0,15,0.00,,,-99.99,,2013-06-13 21:34:00,
2013-06-13 15:43:00,77.0,27.0,-100.00,SSE,168,18.0,29.0,15,0.00,,,-99.99,,2013-06-13 21:43:00,
2013-06-13 15:52:00,78.0,27.0,-100.00,South,178,15.0,25.0,15,0.00,,,-99.99,,2013-06-13 21:52:00,
2013-06-13 16:02:00,78.0,26.0,-100.00,South,172,21.0,34.0,15,0.00,,,-99.99,,2013-06-13 22:02:00,
2013-06-13 16:11:00,77.0,26.0,-100.00,SSE,167,20.0,35.0,15,0.00,,,-99.99,,2013-06-13 22:11:00,
2013-06-13 16:22:00,78.0,27.0,-100.00,SSE,168,18.0,29.0,15,0.00,,,-99.99,,2013-06-13 22:22:00,
2013-06-13 16:32:00,78.0,26.0,-100.00,SSE,165,19.0,29.0,14,0.00,,,-99.99,,2013-06-13 22:32:00,
2013-06-13 16:42:00,78.0,27.0,-100.00,SSE,168,19.0,30.0,15,0.00,,,-99.99,,2013-06-13 22:42:00,
2013-06-13 16:52:00,78.0,25.0,-100.00,South,172,15.0,23.0,14,0.00,,,-99.99,,2013-06-13 22:52:00,
2013-06-13 17:02:00,78.0,26.0,-100.00,South,178,14.0,23.0,15,0.00,,,-99.99,,2013-06-13 23:02:00,
2013-06-13 17:11:00,79.0,26.0,-100.00,South,176,16.0,23.0,14,0.00,,,-99.99,,2013-06-13 23:11:00,
2013-06-13 17:22:00,78.0,26.0,-100.00,South,169,19.0,32.0,14,0.00,,,-99.99,,2013-06-13 23:22:00,
2013-06-13 17:32:00,79.0,26.0,-100.00,South,174,16.0,27.0,14,0.00,,,-99.99,,2013-06-13 23:32:00,
2013-06-13 17:43:00,78.0,26.0,-100.00,South,178,13.0,22.0,14,0.00,,,-99.99,,2013-06-13 23:43:00,
2013-06-13 17:52:00,78.0,26.0,-100.00,South,171,12.0,19.0,15,0.00,,,-99.99,,2013-06-13 23:52:00,
2013-06-13 18:01:00,77.0,25.0,-100.00,South,171,12.0,21.0,14,0.00,,,-99.99,,2013-06-14 00:01:00,
2013-06-13 18:11:00,77.0,26.0,-100.00,SSE,167,15.0,24.0,15,0.00,,,-99.99,,2013-06-14 00:11:00,
2013-06-13 18:22:00,78.0,27.0,-100.00,South,169,12.0,21.0,15,0.00,,,-99.99,,2013-06-14 00:22:00,
2013-06-13 18:34:00,77.0,27.0,-100.00,SSE,162,12.0,18.0,16,0.00,,,-99.99,,2013-06-14 00:34:00,
2013-06-13 18:43:00,77.0,26.0,-100.00,SSE,152,14.0,24.0,15,0.00,,,-99.99,,2013-06-14 00:43:00,
2013-06-13 18:53:00,78.0,27.0,-100.00,South,172,13.0,22.0,15,0.00,,,-99.99,,2013-06-14 00:53:00,
2013-06-13 19:01:00,77.0,28.0,-100.00,SSE,168,14.0,22.0,17,0.00,,,-99.99,,2013-06-14 01:01:00,
2013-06-13 19:11:00,77.0,26.0,-100.00,South,171,15.0,24.0,15,0.00,,,-99.99,,2013-06-14 01:11:00,
2013-06-13 19:22:00,76.0,26.0,-100.00,South,169,9.0,18.0,15,0.00,,,-99.99,,2013-06-14 01:22:00,
2013-06-13 19:32:00,75.0,27.0,-100.00,South,175,9.0,17.0,17,0.00,,,-99.99,,2013-06-14 01:32:00,
2013-06-13 19:43:00,76.0,25.0,-100.00,South,171,11.0,18.0,15,0.00,,,-99.99,,2013-06-14 01:43:00,
2013-06-13 19:52:00,75.0,26.0,-100.00,South,175,10.0,17.0,16,0.00,,,-99.99,,2013-06-14 01:52:00,
2013-06-13 20:02:00,75.0,25.0,-100.00,South,176,10.0,16.0,15,0.00,,,-99.99,,2013-06-14 02:02:00,
2013-06-13 20:11:00,74.0,27.0,-100.00,South,171,7.0,13.0,17,0.00,,,-99.99,,2013-06-14 02:11:00,
2013-06-13 20:22:00,74.0,25.0,-100.00,SSE,165,9.0,15.0,16,0.00,,,-99.99,,2013-06-14 02:22:00,
2013-06-13 20:32:00,73.0,26.0,-100.00,SSE,164,8.0,13.0,17,0.00,,,-99.99,,2013-06-14 02:32:00,
2013-06-13 20:43:00,73.0,26.0,-100.00,SSE,158,9.0,13.0,18,0.00,,,-99.99,,2013-06-14 02:43:00,
2013-06-13 20:52:00,72.0,26.0,-100.00,SSE,157,9.0,14.0,18,0.00,,,-99.99,,2013-06-14 02:52:00,
2013-06-13 21:02:00,71.0,26.0,-100.00,SSE,154,9.0,12.0,18,0.00,,,-99.99,,2013-06-14 03:02:00,
2013-06-13 21:11:00,70.0,26.0,-100.00,SSE,152,8.0,11.0,19,0.00,,,-99.99,,2013-06-14 03:11:00,
2013-06-13 21:22:00,71.0,26.0,-100.00,SSE,150,9.0,12.0,19,0.00,,,-99.99,,2013-06-14 03:22:00,
2013-06-13 21:34:00,69.0,26.0,-100.00,SSE,150,8.0,11.0,20,0.00,,,-99.99,,2013-06-14 03:34:00,
2013-06-13 21:43:00,70.0,26.0,-100.00,SSE,151,9.0,16.0,19,0.00,,,-99.99,,2013-06-14 03:43:00,
2013-06-13 21:52:00,70.0,26.0,-100.00,SSE,154,10.0,16.0,20,0.00,,,-99.99,,2013-06-14 03:52:00,
2013-06-13 22:01:00,69.0,27.0,-100.00,SSE,151,11.0,17.0,20,0.00,,,-99.99,,2013-06-14 04:01:00,
2013-06-13 22:12:00,68.0,27.0,-100.00,SSE,150,11.0,16.0,21,0.00,,,-99.99,,2013-06-14 04:12:00,
2013-06-13 22:22:00,68.0,27.0,-100.00,SSE,151,12.0,15.0,21,0.00,,,-99.99,,2013-06-14 04:22:00,
2013-06-13 22:33:00,69.0,27.0,-100.00,SSE,150,12.0,17.0,21,0.00,,,-99.99,,2013-06-14 04:33:00,
2013-06-13 22:43:00,69.0,27.0,-100.00,SSE,148,14.0,18.0,21,0.00,,,-99.99,,2013-06-14 04:43:00,
2013-06-13 22:53:00,69.0,27.0,-100.00,SSE,150,14.0,18.0,21,0.00,,,-99.99,,2013-06-14 04:53:00,
2013-06-13 23:02:00,68.0,27.0,-100.00,SSE,147,13.0,16.0,21,0.00,,,-99.99,,2013-06-14 05:02:00,
2013-06-13 23:11:00,67.0,27.0,-100.00,SSE,152,12.0,17.0,22,0.00,,,-99.99,,2013-06-14 05:11:00,
2013-06-13 23:22:00,67.0,27.0,-100.00,SSE,147,14.0,16.0,22,0.00,,,-99.99,,2013-06-14 05:22:00,
2013-06-13 23:33:00,66.0,27.0,-100.00,SE,145,15.0,18.0,23,0.00,,,-99.99,,2013-06-14 05:33:00,
2013-06-13 23:43:00,66.0,27.0,-100.00,SSE,147,14.0,17.0,24,0.00,,,-99.99,,2013-06-14 05:43:00,
2013-06-13 23:52:00,66.0,27.0,-100.00,SE,145,16.0,19.0,24,0.00,,,-99.99,,2013-06-14 05:52:00,